Alges — CSPH — position and weather

sailwx.info

Track history (hours):
 
Tides and Currents Weather Stations Pressure Air Temp Water Temp Dewpoint Dewpoint Depression Visibility Wind Speed Wind Dir Waves Ship Positions

Alges

Last reported at 2014-Oct-24 14:33 UTC. Time now 2014-Oct-25 23:37 UTC.
Position N 38°41' W 009°09'.

Length 45 m; draft 24.8 m.

Type: Passenger vessel. MMSI: 263700008.

Date/timePositionNaut miles runAvg speedWind from/ knotsBaromVisibWave heightAir tempDewpointWater temp
2014-Oct-24 14:33N 38°41' W 009°09'0 0.0
2014-Oct-24 09:33N 38°41' W 009°09'0 0.0
2014-Oct-24 08:33N 38°41' W 009°09'0 0.0
2014-Oct-24 07:17N 38°41' W 009°09'7 8.9
2014-Oct-24 06:33N 38°42' W 009°00'6 0.5
2014-Oct-23 18:33N 38°42' W 009°08'0 0.1
2014-Oct-23 17:33N 38°42' W 009°08'0 0.2
2014-Oct-23 16:34N 38°42' W 009°08'0 0.1
2014-Oct-23 15:33N 38°42' W 009°08'0 0.0
2014-Oct-23 14:33N 38°42' W 009°08'6 5.9
2014-Oct-23 13:33N 38°42' W 009°00'0 0.2
2014-Oct-23 12:33N 38°42' W 009°01'5 5.4
2014-Oct-23 11:34N 38°42' W 009°08'6 5.5
2014-Oct-23 10:33N 38°42' W 009°00'7 6.6
2014-Oct-23 09:33N 38°41' W 009°09'1 1.1
2014-Oct-23 08:34N 38°42' W 009°08'0 0.2
2014-Oct-23 07:33N 38°42' W 009°08'0 0.3
2014-Oct-23 06:34N 38°42' W 009°08'0 0.3
2014-Oct-23 05:33N 38°42' W 009°08'6 5.9
2014-Oct-23 04:33N 38°42' W 009°00'1 0.2
2014-Oct-22 22:34N 38°41' W 009°02'1 0.8
2014-Oct-22 21:33N 38°42' W 009°01'0 0.1
2014-Oct-22 20:33N 38°42' W 009°01'0 0.2
2014-Oct-22 19:34N 38°42' W 009°01'0 0.2
2014-Oct-22 18:34N 38°42' W 009°01'0 0.1
2014-Oct-22 17:33N 38°42' W 009°01'0 0.1
2014-Oct-22 16:33N 38°42' W 009°01'0 0.2
2014-Oct-22 15:33N 38°42' W 009°01'5 0.8
2014-Oct-22 09:33N 38°42' W 009°07'1 1.1
2014-Oct-22 08:33N 38°42' W 009°08'0 0.3
2014-Oct-22 07:32N 38°42' W 009°08'0 0.0
2014-Oct-22 06:33N 38°42' W 009°08'0 0.2
2014-Oct-22 05:33N 38°42' W 009°08'6 5.8
2014-Oct-22 04:34N 38°42' W 009°00'1 0.2
2014-Oct-21 22:33N 38°41' W 009°01'1 0.5
2014-Oct-21 21:33N 38°42' W 009°01'0 0.1
2014-Oct-21 20:33N 38°42' W 009°01'0 0.2
2014-Oct-21 19:33N 38°42' W 009°01'0 0.4
2014-Oct-21 18:33N 38°42' W 009°01'0 0.1
2014-Oct-21 17:32N 38°42' W 009°00'0 0.1
2014-Oct-21 16:33N 38°42' W 009°00'0 0.4
2014-Oct-21 15:33N 38°42' W 009°01'0 0.1
2014-Oct-21 10:33N 38°42' W 009°00'0 0.5
2014-Oct-21 09:33N 38°42' W 009°01'6 5.5
2014-Oct-21 08:33N 38°42' W 009°08'0 0.3
2014-Oct-21 07:33N 38°42' W 009°08'0 0.3
2014-Oct-21 06:33N 38°42' W 009°08'0 0.1
2014-Oct-21 05:32N 38°42' W 009°08'6 6.0
2014-Oct-21 04:33N 38°42' W 009°00'1 0.2
2014-Oct-20 22:33N 38°41' W 009°01'0 0.5
2014-Oct-20 21:33N 38°42' W 009°01'0 0.5
2014-Oct-20 20:33N 38°42' W 009°00'0 0.0
2014-Oct-20 19:32N 38°42' W 009°00'0 0.3
2014-Oct-20 18:33N 38°42' W 009°01'0 0.2
2014-Oct-20 17:32N 38°42' W 009°00'0 0.5
2014-Oct-20 16:34N 38°42' W 009°01'0 0.1
2014-Oct-20 15:33N 38°42' W 009°01'0 0.1
2014-Oct-20 10:23N 38°42' W 009°00'1 1.7
2014-Oct-20 09:33N 38°41' W 009°02'5 4.8
2014-Oct-20 08:33N 38°42' W 009°08'0 0.2
2014-Oct-20 07:33N 38°42' W 009°08'0 0.5
2014-Oct-20 06:33N 38°42' W 009°07'0 0.1
2014-Oct-20 05:33N 38°42' W 009°07'6 5.5
2014-Oct-20 04:33N 38°42' W 009°00'6 0.7
2014-Oct-19 20:33N 38°42' W 009°08'6 5.8
2014-Oct-19 19:33N 38°42' W 009°00'6 5.9
2014-Oct-19 18:33N 38°42' W 009°08'6 5.9
2014-Oct-19 17:33N 38°42' W 009°00'0 0.1
2014-Oct-19 16:33N 38°42' W 009°00'6 5.7
2014-Oct-19 15:32N 38°42' W 009°08'5 3.8
2014-Oct-19 14:18N 38°41' W 009°02'1 1.7
2014-Oct-19 13:29N 38°42' W 009°00'0 0.0
2014-Oct-19 12:33N 38°42' W 009°00'1 0.7
2014-Oct-19 11:33N 38°42' W 009°01'1 0.7
2014-Oct-19 10:32N 38°42' W 009°00'6 6.0
2014-Oct-19 09:33N 38°42' W 009°08'6 5.9
2014-Oct-19 08:33N 38°42' W 009°00'6 5.8
2014-Oct-19 07:33N 38°42' W 009°08'6 5.8
2014-Oct-19 06:32N 38°42' W 009°00'0 0.0
2014-Oct-18 21:30N 38°42' W 009°00'6 6.0
2014-Oct-18 20:33N 38°42' W 009°08'0 0.2
2014-Oct-18 19:33N 38°42' W 009°08'0 0.1
2014-Oct-18 18:33N 38°42' W 009°08'6 5.8
2014-Oct-18 17:32N 38°42' W 009°00'0 0.4
2014-Oct-18 16:33N 38°42' W 009°01'5 5.3
2014-Oct-18 15:33N 38°42' W 009°08'6 5.6
2014-Oct-18 14:32N 38°42' W 009°00'0 0.5
2014-Oct-18 13:33N 38°42' W 009°01'0 0.5
2014-Oct-18 12:30N 38°42' W 009°00'0 0.0
2014-Oct-18 11:32N 38°42' W 009°00'0 0.0
2014-Oct-18 10:33N 38°42' W 009°00'0 0.0
2014-Oct-18 09:34N 38°42' W 009°00'0 0.0
2014-Oct-18 08:24N 38°42' W 009°00'0 0.1
2014-Oct-18 07:33N 38°42' W 009°00'0 0.4
2014-Oct-18 06:33N 38°42' W 009°01'0 0.4
2014-Oct-18 05:22N 38°42' W 009°00'1 0.2
2014-Oct-17 22:34N 38°41' W 009°02'1 1.1
2014-Oct-17 21:32N 38°42' W 009°00'0 0.0
2014-Oct-17 20:33N 38°42' W 009°00'0 0.3
2014-Oct-17 19:33N 38°42' W 009°01'0 0.3
2014-Oct-17 18:32N 38°42' W 009°00'0 0.4
2014-Oct-17 17:33N 38°42' W 009°01'0 0.2
2014-Oct-17 16:33N 38°42' W 009°01'1 0.2
2014-Oct-17 10:33N 38°41' W 009°02'5 4.7
2014-Oct-17 09:26N 38°42' W 009°09'0 0.0
2014-Oct-17 08:33N 38°42' W 009°09'1 0.6
2014-Oct-17 07:33N 38°42' W 009°08'0 0.1
2014-Oct-17 06:33N 38°42' W 009°08'0 0.1
2014-Oct-17 05:33N 38°42' W 009°08'6 5.9
2014-Oct-17 04:33N 38°42' W 009°00'2 0.3
2014-Oct-16 22:33N 38°41' W 009°02'2 1.5
2014-Oct-16 21:32N 38°42' W 009°01'0 0.2
2014-Oct-16 20:32N 38°42' W 009°01'0 0.0
2014-Oct-16 19:33N 38°42' W 009°01'0 0.2
2014-Oct-16 18:33N 38°42' W 009°01'0 0.2
2014-Oct-16 17:33N 38°42' W 009°01'0 0.2
2014-Oct-16 16:32N 38°42' W 009°01'0 0.0
2014-Oct-16 10:13N 38°42' W 009°01'0 0.0
2014-Oct-16 09:32N 38°42' W 009°01'6 5.8
2014-Oct-16 08:32N 38°42' W 009°08'0 0.0
2014-Oct-16 07:33N 38°42' W 009°08'0 0.0
2014-Oct-16 06:32N 38°42' W 009°08'0 0.0
2014-Oct-16 05:23N 38°42' W 009°08'6 7.2
2014-Oct-16 04:33N 38°42' W 009°00'1 0.2
2014-Oct-15 22:33N 38°41' W 009°02'1 0.8
2014-Oct-15 21:34N 38°42' W 009°01'0 0.2
2014-Oct-15 20:33N 38°42' W 009°01'0 0.2
2014-Oct-15 19:33N 38°42' W 009°01'0 0.0
2014-Oct-15 18:33N 38°42' W 009°01'0 0.2
2014-Oct-15 17:33N 38°42' W 009°01'0 0.1
2014-Oct-15 16:33N 38°42' W 009°01'0 0.3
2014-Oct-15 15:33N 38°42' W 009°01'0 0.1
2014-Oct-15 10:30N 38°42' W 009°00'7 7.0
2014-Oct-15 09:33N 38°41' W 009°09'0 0.0
2014-Oct-15 08:04N 38°41' W 009°09'0 0.0
2014-Oct-15 07:33N 38°41' W 009°09'  
Track history (hours):
 
Tides and Currents Weather Stations Pressure Air Temp Water Temp Dewpoint Dewpoint Depression Visibility Wind Speed Wind Dir Waves Ship Positions

Alges

Last reported at 2014-Oct-24 14:33 UTC. Time now 2014-Oct-25 23:37 UTC.
Position N 38°41' W 009°09'.

Length 45 m; draft 24.8 m.

Type: Passenger vessel. MMSI: 263700008.

Date/timePositionNaut miles runAvg speedWind from/ knotsBaromVisibWave heightAir tempDewpointWater temp
2014-Oct-24 14:33N 38°41' W 009°09'0 0.0
2014-Oct-24 09:33N 38°41' W 009°09'0 0.0
2014-Oct-24 08:33N 38°41' W 009°09'0 0.0
2014-Oct-24 07:17N 38°41' W 009°09'7 8.9
2014-Oct-24 06:33N 38°42' W 009°00'6 0.5
2014-Oct-23 18:33N 38°42' W 009°08'0 0.1
2014-Oct-23 17:33N 38°42' W 009°08'0 0.2
2014-Oct-23 16:34N 38°42' W 009°08'0 0.1
2014-Oct-23 15:33N 38°42' W 009°08'0 0.0
2014-Oct-23 14:33N 38°42' W 009°08'6 5.9
2014-Oct-23 13:33N 38°42' W 009°00'0 0.2
2014-Oct-23 12:33N 38°42' W 009°01'5 5.4
2014-Oct-23 11:34N 38°42' W 009°08'6 5.5
2014-Oct-23 10:33N 38°42' W 009°00'7 6.6
2014-Oct-23 09:33N 38°41' W 009°09'1 1.1
2014-Oct-23 08:34N 38°42' W 009°08'0 0.2
2014-Oct-23 07:33N 38°42' W 009°08'0 0.3
2014-Oct-23 06:34N 38°42' W 009°08'0 0.3
2014-Oct-23 05:33N 38°42' W 009°08'6 5.9
2014-Oct-23 04:33N 38°42' W 009°00'1 0.2
2014-Oct-22 22:34N 38°41' W 009°02'1 0.8
2014-Oct-22 21:33N 38°42' W 009°01'0 0.1
2014-Oct-22 20:33N 38°42' W 009°01'0 0.2
2014-Oct-22 19:34N 38°42' W 009°01'0 0.2
2014-Oct-22 18:34N 38°42' W 009°01'0 0.1
2014-Oct-22 17:33N 38°42' W 009°01'0 0.1
2014-Oct-22 16:33N 38°42' W 009°01'0 0.2
2014-Oct-22 15:33N 38°42' W 009°01'5 0.8
2014-Oct-22 09:33N 38°42' W 009°07'1 1.1
2014-Oct-22 08:33N 38°42' W 009°08'0 0.3
2014-Oct-22 07:32N 38°42' W 009°08'0 0.0
2014-Oct-22 06:33N 38°42' W 009°08'0 0.2
2014-Oct-22 05:33N 38°42' W 009°08'6 5.8
2014-Oct-22 04:34N 38°42' W 009°00'1 0.2
2014-Oct-21 22:33N 38°41' W 009°01'1 0.5
2014-Oct-21 21:33N 38°42' W 009°01'0 0.1
2014-Oct-21 20:33N 38°42' W 009°01'0 0.2
2014-Oct-21 19:33N 38°42' W 009°01'0 0.4
2014-Oct-21 18:33N 38°42' W 009°01'0 0.1
2014-Oct-21 17:32N 38°42' W 009°00'0 0.1
2014-Oct-21 16:33N 38°42' W 009°00'0 0.4
2014-Oct-21 15:33N 38°42' W 009°01'0 0.1
2014-Oct-21 10:33N 38°42' W 009°00'0 0.5
2014-Oct-21 09:33N 38°42' W 009°01'6 5.5
2014-Oct-21 08:33N 38°42' W 009°08'0 0.3
2014-Oct-21 07:33N 38°42' W 009°08'0 0.3
2014-Oct-21 06:33N 38°42' W 009°08'0 0.1
2014-Oct-21 05:32N 38°42' W 009°08'6 6.0
2014-Oct-21 04:33N 38°42' W 009°00'1 0.2
2014-Oct-20 22:33N 38°41' W 009°01'0 0.5
2014-Oct-20 21:33N 38°42' W 009°01'0 0.5
2014-Oct-20 20:33N 38°42' W 009°00'0 0.0
2014-Oct-20 19:32N 38°42' W 009°00'0 0.3
2014-Oct-20 18:33N 38°42' W 009°01'0 0.2
2014-Oct-20 17:32N 38°42' W 009°00'0 0.5
2014-Oct-20 16:34N 38°42' W 009°01'0 0.1
2014-Oct-20 15:33N 38°42' W 009°01'0 0.1
2014-Oct-20 10:23N 38°42' W 009°00'1 1.7
2014-Oct-20 09:33N 38°41' W 009°02'5 4.8
2014-Oct-20 08:33N 38°42' W 009°08'0 0.2
2014-Oct-20 07:33N 38°42' W 009°08'0 0.5
2014-Oct-20 06:33N 38°42' W 009°07'0 0.1
2014-Oct-20 05:33N 38°42' W 009°07'6 5.5
2014-Oct-20 04:33N 38°42' W 009°00'6 0.7
2014-Oct-19 20:33N 38°42' W 009°08'6 5.8
2014-Oct-19 19:33N 38°42' W 009°00'6 5.9
2014-Oct-19 18:33N 38°42' W 009°08'6 5.9
2014-Oct-19 17:33N 38°42' W 009°00'0 0.1
2014-Oct-19 16:33N 38°42' W 009°00'6 5.7
2014-Oct-19 15:32N 38°42' W 009°08'5 3.8
2014-Oct-19 14:18N 38°41' W 009°02'1 1.7
2014-Oct-19 13:29N 38°42' W 009°00'0 0.0
2014-Oct-19 12:33N 38°42' W 009°00'1 0.7
2014-Oct-19 11:33N 38°42' W 009°01'1 0.7
2014-Oct-19 10:32N 38°42' W 009°00'6 6.0
2014-Oct-19 09:33N 38°42' W 009°08'6 5.9
2014-Oct-19 08:33N 38°42' W 009°00'6 5.8
2014-Oct-19 07:33N 38°42' W 009°08'6 5.8
2014-Oct-19 06:32N 38°42' W 009°00'0 0.0
2014-Oct-18 21:30N 38°42' W 009°00'6 6.0
2014-Oct-18 20:33N 38°42' W 009°08'0 0.2
2014-Oct-18 19:33N 38°42' W 009°08'0 0.1
2014-Oct-18 18:33N 38°42' W 009°08'6 5.8
2014-Oct-18 17:32N 38°42' W 009°00'0 0.4
2014-Oct-18 16:33N 38°42' W 009°01'5 5.3
2014-Oct-18 15:33N 38°42' W 009°08'6 5.6
2014-Oct-18 14:32N 38°42' W 009°00'0 0.5
2014-Oct-18 13:33N 38°42' W 009°01'0 0.5
2014-Oct-18 12:30N 38°42' W 009°00'0 0.0
2014-Oct-18 11:32N 38°42' W 009°00'0 0.0
2014-Oct-18 10:33N 38°42' W 009°00'0 0.0
2014-Oct-18 09:34N 38°42' W 009°00'0 0.0
2014-Oct-18 08:24N 38°42' W 009°00'0 0.1
2014-Oct-18 07:33N 38°42' W 009°00'0 0.4
2014-Oct-18 06:33N 38°42' W 009°01'0 0.4
2014-Oct-18 05:22N 38°42' W 009°00'1 0.2
2014-Oct-17 22:34N 38°41' W 009°02'1 1.1
2014-Oct-17 21:32N 38°42' W 009°00'0 0.0
2014-Oct-17 20:33N 38°42' W 009°00'0 0.3
2014-Oct-17 19:33N 38°42' W 009°01'0 0.3
2014-Oct-17 18:32N 38°42' W 009°00'0 0.4
2014-Oct-17 17:33N 38°42' W 009°01'0 0.2
2014-Oct-17 16:33N 38°42' W 009°01'1 0.2
2014-Oct-17 10:33N 38°41' W 009°02'5 4.7
2014-Oct-17 09:26N 38°42' W 009°09'0 0.0
2014-Oct-17 08:33N 38°42' W 009°09'1 0.6
2014-Oct-17 07:33N 38°42' W 009°08'0 0.1
2014-Oct-17 06:33N 38°42' W 009°08'0 0.1
2014-Oct-17 05:33N 38°42' W 009°08'6 5.9
2014-Oct-17 04:33N 38°42' W 009°00'2 0.3
2014-Oct-16 22:33N 38°41' W 009°02'2 1.5
2014-Oct-16 21:32N 38°42' W 009°01'0 0.2
2014-Oct-16 20:32N 38°42' W 009°01'0 0.0
2014-Oct-16 19:33N 38°42' W 009°01'0 0.2
2014-Oct-16 18:33N 38°42' W 009°01'0 0.2
2014-Oct-16 17:33N 38°42' W 009°01'0 0.2
2014-Oct-16 16:32N 38°42' W 009°01'0 0.0
2014-Oct-16 10:13N 38°42' W 009°01'0 0.0
2014-Oct-16 09:32N 38°42' W 009°01'6 5.8
2014-Oct-16 08:32N 38°42' W 009°08'0 0.0
2014-Oct-16 07:33N 38°42' W 009°08'0 0.0
2014-Oct-16 06:32N 38°42' W 009°08'0 0.0
2014-Oct-16 05:23N 38°42' W 009°08'6 7.2
2014-Oct-16 04:33N 38°42' W 009°00'1 0.2
2014-Oct-15 22:33N 38°41' W 009°02'1 0.8
2014-Oct-15 21:34N 38°42' W 009°01'0 0.2
2014-Oct-15 20:33N 38°42' W 009°01'0 0.2
2014-Oct-15 19:33N 38°42' W 009°01'0 0.0
2014-Oct-15 18:33N 38°42' W 009°01'0 0.2
2014-Oct-15 17:33N 38°42' W 009°01'0 0.1
2014-Oct-15 16:33N 38°42' W 009°01'0 0.3
2014-Oct-15 15:33N 38°42' W 009°01'0 0.1
2014-Oct-15 10:30N 38°42' W 009°00'7 7.0
2014-Oct-15 09:33N 38°41' W 009°09'0 0.0
2014-Oct-15 08:04N 38°41' W 009°09'0 0.0
2014-Oct-15 07:33N 38°41' W 009°09'  

Dump ship's entire track history